Torna al catalogo

CZ-6A DEB

AttivoSSO
NORAD 55219·DEBRIS·🇨🇳 China

Lanciato Nov 11, 2022 da Taiyuan Satellite Launch Center

Loading…

Prossimi Passaggi (prossime 24 ore)

TLE

AggiornatoSource: Space-Track

Epoca: Sep 14, 2026, 02:36 UTC

1 55219U 22151WL  26257.10875703  .00004726  00000-0  87392-3 0  9997
2 55219  98.6058 319.6804 0079267  24.4681 336.0250 14.63875756197511

Traccia CZ-6A DEB in tempo reale con AllMySat

Download on the App Store